Location: Brad
(46.1333°N, 22.7833°E)
Time: 15:07:40
(UTC+00:00)

Cosmos 540 Rocket - Visible Passes

Search period start: 30 September 2023 00:00
Search period end: 10 October 2023 00:00
Orbit: 739 x 751 km, 74.1° (Epoch: 30 September)

Date Brightness Start Highest point End Pass type
(mag) Time Alt. Az. Time Alt. Az. Time Alt. Az.
30 Sep 5.1 19:15:19 10° N 19:17:44 26° N 19:17:44 26° N visible
30 Sep 6.4 20:57:21 10° NW 20:57:31 11° NW 20:57:31 11° NW visible
01 Oct 5.0 18:31:47 10° N 18:34:38 23° NNE 18:34:38 23° NNE visible
01 Oct 5.9 20:12:55 10° NNW 20:14:25 19° NW 20:14:25 19° NW visible
02 Oct 5.3 17:48:42 10° NNE 17:51:33 15° NE 17:51:33 15° NE visible
02 Oct 5.1 19:28:52 10° NNW 19:31:20 29° NNW 19:31:20 29° NNW visible
03 Oct 4.5 18:45:03 10° NNW 18:48:18 34° NNE 18:48:18 34° NNE visible
03 Oct 6.2 20:27:14 10° NW 20:28:04 14° NW 20:28:04 14° NW visible
04 Oct 4.6 18:01:30 10° N 18:05:17 26° NE 18:05:17 26° NE visible
04 Oct 5.4 19:42:43 10° NNW 19:45:04 25° NW 19:45:04 25° NW visible
05 Oct 5.1 17:18:20 10° N 17:21:29 16° NE 17:22:19 16° ENE visible
05 Oct 4.4 18:58:38 10° NNW 19:02:06 44° NNW 19:02:06 44° NNW visible
06 Oct 3.8 18:14:47 10° NNW 18:19:10 48° NE 18:19:10 48° NE visible
06 Oct 5.9 19:57:04 10° NW 19:58:57 18° WNW 19:58:57 18° WNW visible
07 Oct 4.4 17:31:12 10° N 17:35:38 29° ENE 17:36:17 28° ENE visible
07 Oct 4.8 19:12:31 10° NW 19:16:05 36° WNW 19:16:05 36° WNW visible
08 Oct 5.0 16:47:58 10° N 16:51:17 17° NE 16:53:29 13° E visible
08 Oct 3.4 18:28:23 10° NNW 18:33:17 78° WNW 18:33:17 78° WNW visible
09 Oct 3.5 17:44:31 10° NNW 17:49:33 54° ENE 17:50:33 46° ESE visible
09 Oct 5.6 19:26:57 10° NW 19:30:21 21° W 19:30:21 21° W visible
